• Join FlightAware (Why Join?)
  • Login
  • US Flag 
09:19PM EDT


 

Airport Tracker/Info


-or-


 

Live Flight TrackerFlight Track Log ✈ ASQ4209 ✈ 10-Jul-2013 ✈ KIAH - KBTR

Flight Track Log - Related Links

Times and Time Zones

All times are in EDT time to prevent confusion due to time zone crossing. See the ASQ4209 flight status page for this flight to view local times or setup timezone preferences in your user account.

Time Position Orientation Groundspeed Altitude Reporting Facility
EDT Latitude Longitude Course Direction KTS MPH feet Rate Location/Type
08:09PM 29.9639 -95.3433 90° East 155 178 600  Level Houston Center
08:10PM 29.9447 -95.2733 108° East 235 270 2,500 1,560 Climbing Houston Center
08:11PM 29.9353 -95.2144 100° East 242 278 3,900 1,980 Climbing Houston Center
08:12PM 29.9834 -94.9077 90° East  Level FlightAware Approximate
08:12PM 29.9247 -95.1128 97° East 270 311 6,300  Level Houston Center
08:13PM 29.9834 -94.8013 90° East  Level FlightAware Approximate
08:13PM 29.9458 -95.0283 74° East 272 313 8,500  Level Houston Center
08:14PM 29.9834 -94.6949 90° East  Level FlightAware Approximate
08:14PM 29.9689 -94.9417 73° East 279 321 10,500  Level Houston Center
08:15PM 29.9811 -94.8364 82° East 322 371 11,100 840 Climbing Houston Center
08:16PM 29.9853 -94.7225 88° East 349 402 12,300 1,320 Climbing Houston Center
08:17PM 29.9886 -94.6069 88° East 357 411 13,900 1,560 Climbing Houston Center
08:18PM 29.9919 -94.4742 88° East 359 413 15,600 1,560 Climbing Houston Center
08:19PM 29.9956 -94.3625 88° East 353 406 17,200 1,380 Climbing Houston Center
08:20PM 30.0019 -94.2511 86° East 351 404 18,500 1,200 Climbing Houston Center
08:21PM 30.0175 -94.1372 81° East 357 411 19,700 1,080 Climbing Houston Center
08:22PM 30.0314 -94.0214 82° East 364 419 20,800 1,080 Climbing Houston Center
08:23PM 30.0461 -93.9028 82° East 371 427 22,000 1,020 Climbing Houston Center
08:24PM 30.0628 -93.7597 82° East 375 432 23,000 480 Climbing Houston Center
08:25PM 30.0781 -93.6328 82° East 396 456 23,000  Level Houston Center
08:26PM 30.0931 -93.5011 82° East 416 479 23,000  Level Houston Center
08:27PM 30.1100 -93.3656 82° East 429 494 23,000  Level Houston Center
08:28PM 30.1269 -93.2297 82° East 433 498 23,000 -780 Level Houston Center
08:29PM 30.1481 -93.0653 82° East 436 502 21,500 -1,620 Descending Houston Center
08:30PM 30.1747 -92.9344 77° East 425 489 19,800 -1,260 Descending Houston Center
08:31PM 30.2000 -92.8044 77° East 419 482 19,000 -420 Descending Houston Center
08:32PM 30.2261 -92.6744 77° East 418 481 19,000  Level Houston Center
08:34PM 30.2500 -92.5433 78° East 419 482 19,000  Level Houston Center
08:35PM 30.2761 -92.4108 77° East 422 486 19,000  Level Houston Center
08:36PM 30.3014 -92.2781 78° East 421 484 19,000  Level Houston Center
08:37PM 30.3311 -92.1211 78° East 419 482 19,000 -840 Level Houston Center
08:38PM 30.3564 -91.9944 77° East 411 473 17,300 -2,520 Descending Houston Center
08:39PM 30.3767 -91.8794 78° East 380 437 13,900 -3,000 Descending Houston Center
08:40PM 30.3989 -91.7608 78° East 378 435 11,200 -1,920 Descending Houston Center
08:41PM 30.4181 -91.6592 78° East 329 379 10,000 -1,380 Descending Houston Center
08:42PM 30.4358 -91.5697 77° East 294 338 8,400 -1,620 Descending Houston Center
08:43PM 30.4506 -91.4869 78° East 272 313 6,700 -1,620 Descending Houston Center
08:44PM 30.4633 -91.4069 79° East 258 297 5,100 -1,320 Descending Houston Center
08:45PM 30.5172 -91.3356 49° Northeast 260 299 4,000 -540 Descending Houston Center
08:46PM 30.5714 -91.2778 43° Northeast 264 304 4,000 -540 Level Houston Center
08:47PM 30.6253 -91.2214 42° Northeast 261 300 2,900 -1,080 Descending Houston Center